Home > Weather > Utsunomiya > Past weeks

Flag for Japan Past Weather in Utsunomiya, Japan — Yesterday and Last 2 Weeks

Now
79 °F

Overcast.


Feels Like: 81 °F
Forecast: 60 / 79 °F
Wind: 9 mph from Southeast

Location: Mito

Current Time: Jun 26, 2016 at 3:36:54 PM

Latest Report: Jun 26, 2016 at 3:00 PM


Visibility: 19 mi

Pressure: 29.68 "Hg

Humidity: 60%

Dew Point: 64 °F

Location of UtsunomiyaLocation

Past Weather in Utsunomiya — Graph

°F

Utsunomiya Temperature Yesterday

Maximum temperature yesterday: 79 °F (at 1:00 PM)
Minimum temperature yesterday: 70 °F (at 12:00 AM)
Average temperature yesterday: 75 °F

High & Low Weather Summary for the Past Weeks

 TemperatureHumidityPressure
High89 °F (Jun 18, 1:00 PM)98% (Jun 17, 3:00 AM)30.01 "Hg (Jun 17, 3:00 AM)
Low62 °F (Jun 13, 7:00 AM)35% (Jun 18, 1:00 PM)29.44 "Hg (Jun 13, 3:00 PM)
Average72 °F83%29.75 "Hg
* Reported Jun 11 2:00 PM — Jun 26 2:00 PM, Utsunomiya, Weather by CustomWeather, © 2016

Note: Actual official high and low records may vary slightly from our data, if they occured in-between our weather recording intervals... More about our weather records

Advertising

Utsunomiya Weather History for the Previous 24 Hours

Scroll right to see more
 ConditionsComfort  
Time TempWeatherWind HumidityBarometerVisibility
2:00 PM
Sun, Jun 26
81 °FWarm.8 mph57%29.67 "HgN/A
1:00 PM81 °FWarm.6 mph63%29.67 "HgN/A
12:00 PM79 °FWarm.7 mph66%29.66 "HgN/A
11:00 AM80 °FWarm.3 mph61%29.66 "HgN/A
10:00 AM78 °FWarm.3 mph62%29.66 "HgN/A
9:00 AM77 °FOvercast.3 mph69%29.66 "Hg19 mi
8:00 AM74 °FMild.2 mph75%29.66 "HgN/A
7:00 AM69 °FMild.1 mph85%29.66 "HgN/A
5:00 AM69 °FMild.1 mph92%29.63 "HgN/A
4:00 AM69 °FMild.3 mph89%29.60 "HgN/A
3:00 AM68 °FOvercast.2 mph96%29.58 "Hg12 mi
2:00 AM69 °FMild.3 mph95%29.58 "HgN/A
1:00 AM70 °FMild.5 mph92%29.57 "HgN/A
12:00 AM71 °FMild.3 mph92%29.56 "HgN/A
11:00 PM
Sat, Jun 25
71 °FMild.3 mph91%29.56 "HgN/A
10:00 PM72 °FMild.3 mph84%29.56 "HgN/A
9:00 PM73 °FOvercast.5 mph82%29.55 "Hg12 mi
8:00 PM74 °FMild.5 mph83%29.55 "HgN/A
7:00 PM74 °FMild.6 mph79%29.53 "HgN/A
6:00 PM75 °FMild.3 mph88%29.53 "HgN/A
5:00 PM78 °FWarm.6 mph82%29.50 "HgN/A
4:00 PM79 °FWarm.2 mph81%29.50 "HgN/A
3:00 PM78 °FOvercast.2 mph81%29.50 "Hg9 mi
Weather by CustomWeather, © 2016

See weather overviewHow to use our weather pages